User: anonymous
Location: Caltech
(34.1382°N, 118.1253°W)
Time: 00:24:03
(UTC-07:00)
Language:

Cosmos 44 Rocket - Orbit

View from above orbital plane
View from above orbital plane
View from above satellite
View from above satellite

Ground track
Ground track

The orbit data is extracted from the following two-line orbital elements,

1 00877U 64053B   14212.12966454  .00000016  00000-0  28452-4 0  6716
2 00877 065.0793 125.6147 0063889 178.7288 181.3986 14.58863793648014
Epoch (UTC): 31 July 2014 03:06:43
Eccentricity: 0.0063889
inclination: 65.0793°
perigee height: 651 km
apogee height: 742 km
right ascension of ascending node: 125.6147°
argument of perigee: 178.7288°
revolutions per day: 14.58863793
mean anomaly at epoch: 181.3986°
orbit number at epoch: 64801

The dashed part of the orbit path shows where the satellite is in the earth's shadow,  

DLR